Craig, CO

5:47 AM MDT on July 22, 2017 (GMT -0600)
Craig-Moffat

Weather History for KCAG - January, 2013

Change the Weather History Date:

Friday, January 4, 2013

  Actual Average Record
Temperature  
Mean Temperature -7 °F 15 °F  
Max Temperature 7 °F 29 °F 46 °F (2012)
Min Temperature -21 °F 1 °F -26 °F (2009)
Degree Days  
Heating Degree Days 72 50  
Month to date heating degree days 278 200  
Since 1 July heating degree days 3449 3756  
Cooling Degree Days 0 0  
Month to date cooling degree days 0 0  
Year to date cooling degree days 0 0  
Moisture  
Dew Point -17 °F    
Average Humidity 66    
Maximum Humidity 76    
Minimum Humidity 56    
Precipitation  
Precipitation 0.00 in 0.03 in 0.37 in (2007)
Month to date precipitation T 0.11  
Year to date precipitation T 0.11  
Sea Level Pressure  
Sea Level Pressure 30.54 in    
Wind  
Wind Speed 0 mph (SE)    
Max Wind Speed 5 mph    
Max Gust Speed 6 mph    
Visibility 5 miles    
Events      
T = Trace of Precipitation, MM = Missing Value Source: NWS Daily Summary

Daily Weather History Graph

Daily Weather History Graph

Search for Another Location

Airport or City:

Trip Planner

Search our weather history database for the weather conditions in past years. The results will help you decide how hot, cold, wet, or windy it might be!

Date:

Astronomy

Jan. 04, 2013 Rise Set
Actual Time 7:33 AM MST 4:57 PM MST
Civil Twilight 7:03 AM MST 5:27 PM MST
Nautical Twilight 6:28 AM MST 6:01 PM MST
Astronomical Twilight 5:55 AM MST 6:34 PM MST
Moon No Moon Rise 11:16 AM MST (1/4)
Length of Visible Light 10h 24m
Length of Day
9h 23m
Waning Gibbous, 54% of the Moon is Illuminated
Jan 4
Waning Gibbous
Jan 4
Last Quarter
Jan 11
New
Jan 18
First Quarter
Jan 26
Full

Hourly Weather History & Observations

Time (MST) Temp. Windchill Dew Point Humidity Pressure Visibility Wind Dir Wind Speed Gust Speed Precip Events Conditions
12:53 AM -11.0 °F - -20.0 °F 64% 30.75 in 5.0 mi Calm Calm - N/A   Haze
1:15 AM -11.2 °F - -20.2 °F 64% 30.34 in 1.5 mi Calm Calm - N/A   Haze
1:18 AM -11.2 °F - -20.2 °F 64% 30.34 in 0.8 mi Calm Calm - N/A   Haze
1:53 AM -11.9 °F - -18.9 °F 71% 30.75 in 0.2 mi Calm Calm - N/A   Haze
2:50 AM -11.2 °F - -20.2 °F 64% 30.35 in 1.2 mi Calm Calm - N/A   Haze
2:53 AM -11.9 °F - -20.9 °F 64% 30.75 in 1.5 mi Calm Calm - N/A   Haze
3:12 AM -11.2 °F - -18.4 °F 70% 30.34 in 3.0 mi Calm Calm - N/A   Haze
3:53 AM -11.0 °F - -20.9 °F 62% 30.76 in 2.5 mi Calm Calm - N/A   Haze
4:05 AM -11.2 °F - -20.2 °F 64% 30.34 in 4.0 mi Calm Calm - N/A   Haze
4:24 AM -11.2 °F - -20.2 °F 64% 30.34 in 1.5 mi Calm Calm - N/A   Haze
4:30 AM -11.2 °F - -20.2 °F 64% 30.34 in 0.8 mi Calm Calm - N/A   Haze
4:53 AM -13.0 °F - -20.0 °F 71% 30.80 in 0.2 mi Calm Calm - N/A   Haze
5:53 AM -13.0 °F - -20.9 °F 68% 30.82 in 0.5 mi Calm Calm - N/A   Haze
6:06 AM -14.8 °F - -22.0 °F 70% 30.34 in 1.2 mi Calm Calm - N/A   Haze
6:23 AM -14.8 °F - -22.0 °F 70% 30.35 in 1.0 mi Calm Calm - N/A   Haze
6:32 AM -14.8 °F - -23.8 °F 64% 30.34 in 2.0 mi Calm Calm - N/A   Haze
6:40 AM -14.8 °F - -25.6 °F 58% 30.35 in 6.0 mi Calm Calm - N/A   Haze
6:53 AM -18.0 °F - -27.0 °F 64% 30.85 in 8.0 mi Calm Calm - N/A   Mostly Cloudy
7:04 AM -16.6 °F - -25.6 °F 64% 30.35 in 10.0 mi Calm Calm - N/A   Scattered Clouds
7:53 AM -20.0 °F -30.7 °F -29.9 °F 60% 30.87 in 10.0 mi ESE 3.5 mph - N/A   Clear
8:26 AM -13.0 °F - -25.6 °F 53% 30.35 in 2.5 mi Calm Calm - N/A   Haze
8:34 AM -13.0 °F - -25.6 °F 53% 30.34 in 1.8 mi Calm Calm - N/A   Haze
8:37 AM -14.8 °F - -25.6 °F 58% 30.35 in 4.0 mi Calm Calm - N/A   Haze
8:53 AM -14.1 °F - -22.0 °F 68% 30.84 in 5.0 mi Calm Calm - N/A   Haze
9:53 AM -8.0 °F - -17.0 °F 65% 30.82 in 9.0 mi Calm Calm - N/A   Clear
10:25 AM -0.4 °F - -7.6 °F 72% 30.35 in 10.0 mi Calm Calm - N/A   Scattered Clouds
10:34 AM -4.0 °F - -16.6 °F 55% 30.34 in 10.0 mi Calm Calm - N/A   Mostly Cloudy
10:53 AM -4.0 °F - -16.1 °F 56% 30.79 in 10.0 mi Calm Calm - N/A   Overcast
11:36 AM -2.2 °F - -11.2 °F 66% 30.31 in 1.8 mi Calm Calm - N/A   Haze
11:41 AM -2.2 °F - -11.2 °F 66% 30.31 in 0.8 mi Calm Calm - N/A   Haze
11:50 AM -0.4 °F - -11.2 °F 60% 30.30 in 1.2 mi Calm Calm - N/A   Haze
11:53 AM 1.0 °F - -11.9 °F 55% 30.73 in 2.0 mi Calm Calm - N/A   Haze
11:56 AM 1.4 °F - -11.2 °F 56% 30.30 in 1.0 mi Calm Calm - N/A   Haze
12:06 PM 1.4 °F - -11.2 °F 56% 30.29 in 2.5 mi Calm Calm - N/A   Haze
12:12 PM 1.4 °F - -11.2 °F 56% 30.29 in 8.0 mi Calm Calm - N/A   Scattered Clouds
12:48 PM 1.4 °F - -11.2 °F 56% 30.26 in 7.0 mi Calm Calm - N/A   Mostly Cloudy
12:53 PM 1.9 °F - -9.9 °F 58% 30.67 in 8.0 mi Calm Calm - N/A   Mostly Cloudy
1:53 PM 5.0 °F - -7.1 °F 58% 30.63 in 9.0 mi Calm Calm - N/A   Overcast
2:33 PM 3.2 °F - -2.2 °F 78% 30.23 in 1.5 mi Calm Calm - N/A   Haze
2:35 PM 3.2 °F - -2.2 °F 78% 30.23 in 0.8 mi Calm Calm - N/A   Haze
2:53 PM 7.0 °F - -2.0 °F 67% 30.62 in 0.2 mi Calm Calm - N/A   Haze
3:53 PM 5.0 °F - -2.9 °F 70% 30.62 in 0.2 mi Calm Calm - N/A   Haze
4:53 PM -0.9 °F -8.9 °F -8.0 °F 72% 30.66 in 0.8 mi SE 3.5 mph - N/A   Haze
4:55 PM -2.2 °F - -9.4 °F 71% 30.23 in 2.5 mi Calm Calm - N/A   Haze
5:00 PM -2.2 °F - -9.4 °F 71% 30.23 in 10.0 mi Calm Calm - N/A   Scattered Clouds
5:53 PM -5.1 °F - -13.0 °F 69% 30.68 in 10.0 mi Calm Calm - N/A   Clear
6:53 PM -9.0 °F - -18.0 °F 65% 30.73 in 10.0 mi Calm Calm - N/A   Clear
7:53 PM -11.9 °F - -20.0 °F 67% 30.75 in 10.0 mi Calm Calm - N/A   Clear
8:53 PM -16.1 °F - -24.0 °F 67% 30.73 in 10.0 mi Calm Calm - N/A   Clear
9:53 PM -14.1 °F - -20.0 °F 75% 30.71 in 10.0 mi Calm Calm - N/A   Partly Cloudy
10:06 PM -13.0 °F - -23.8 °F 59% 30.25 in 10.0 mi Calm Calm - N/A   Mostly Cloudy
10:53 PM -11.0 °F - -20.9 °F 62% 30.70 in 9.0 mi Calm Calm - N/A   Overcast
11:53 PM -9.9 °F - -20.0 °F 61% 30.67 in 6.0 mi Calm Calm - N/A   Haze